[[{"header":{"parameterUnit":"m.s-1","parameterCategory":1,"la1":30.2991,"la2":30.254,"lo1":-89.0895,"lo2":-89.0444,"dy":0.0017,"dx":0.0017,"nx":28,"ny":28,"refTime":"2023-09-25T21:00:00:Z","depth":0,"parameterNumber":2,"parameterNumberName":"U-component_of_WINDS"},"data":[0,0,0,0,0,0,0,0,0,0,0,0,0,0,0,0,0,0,0,0,0,0,0,0,0,0,0,0,0,0,0,0,0,0,0,0,0,0,0,0,0,0,0,0,0,0,0,0,0,0,0,0,0,0,0,0,0,0,-1.7665,-1.7664,0,-1.763,-1.763,-1.763,-1.7548,-1.7546,-1.7545,-1.7543,-1.751,-1.7511,-1.7512,0,0,0,0,0,0,0,0,0,0,0,0,0,-1.7664,-1.7664,-1.7665,-1.7664,-1.7664,-1.763,-1.763,-1.7629,-1.7548,-1.7546,-1.7544,-1.7542,-1.751,-1.7511,-1.7512,0,0,0,0,0,0,0,0,0,0,0,0,0,-1.7651,-1.7665,-1.7665,-1.7619,-1.7615,-1.763,-1.763,-1.7629,-1.7549,-1.7546,-1.7544,-1.7541,-1.751,-1.7511,-1.7512,-1.7569,0,0,-1.7515,-1.7516,0,0,0,0,0,0,0,0,-1.7651,-1.7651,-1.7627,-1.7623,-1.7618,-1.7591,-1.7617,-1.7609,-1.755,-1.7574,-1.7543,-1.754,-1.7539,-1.7538,-1.7537,-1.7568,-1.7567,-1.7515,-1.7516,-1.7516,-1.7517,0,0,0,0,0,0,0,-1.7652,-1.7652,-1.7651,-1.7626,-1.7621,-1.7602,-1.7597,-1.7616,-1.7572,-1.7572,-1.7566,-1.7563,-1.7536,-1.7536,-1.7536,-1.7566,-1.7515,-1.7516,-1.7517,-1.7517,-1.7644,-1.7646,0,0,0,0,0,0,-1.766,-1.7653,-1.7652,-1.765,-1.7629,-1.7604,-1.7599,-1.7602,-1.7571,-1.7564,-1.7565,-1.7559,-1.7536,-1.7535,-1.7534,-1.76,-1.7516,-1.7517,-1.7518,-1.7641,-1.7644,-1.7647,0,0,0,0,0,0,-1.766,-1.766,-1.7654,-1.765,-1.7648,-1.7607,-1.7611,-1.7603,-1.7602,-1.7566,-1.7558,-1.7572,-1.7534,-1.7533,-1.7561,-1.7597,-1.7518,-1.7519,-1.7638,-1.7642,-1.7646,-1.7731,0,0,0,0,0,0,-1.766,-1.7661,-1.7681,-1.7651,-1.7648,-1.7681,-1.7613,-1.7604,-1.7604,-1.7596,-1.7571,-1.7564,-1.7531,-1.756,-1.7562,-1.7597,-1.752,-1.7634,-1.764,-1.7644,-1.7725,-1.7738,-1.7749,0,0,0,0,0,-1.766,-1.7707,-1.7683,-1.7683,-1.7673,-1.7683,-1.7681,-1.7642,-1.7607,-1.7628,-1.7605,-1.7565,-1.7594,-1.7564,-1.7566,-1.7602,-1.7632,-1.7638,-1.7644,-1.772,-1.7735,-1.7749,0,0,0,0,0,0,-1.7743,-1.7702,-1.7675,-1.7713,-1.7702,-1.7669,-1.7694,-1.766,-1.7659,-1.7651,-1.7604,-1.7599,-1.7634,-1.7621,-1.7588,-1.7656,-1.7606,-1.7613,-1.7663,-1.7678,-1.7689,-1.7692,-1.752,0,0,0,0,0,-1.7766,-1.7776,-1.774,-1.7778,-1.7774,-1.7735,-1.7738,-1.7709,-1.7696,-1.7691,-1.767,-1.7659,-1.7666,-1.7671,-1.7675,-1.7723,-1.7717,-1.7749,-1.7761,-1.7771,-1.7777,-1.7802,-1.7816,-1.7667,-1.7667,-1.7667,0,0,-1.7813,-1.7792,-1.7801,-1.7794,-1.7782,-1.7795,-1.7732,-1.7748,-1.7757,-1.7694,-1.7719,-1.7704,-1.7689,-1.7728,-1.7744,-1.7718,-1.7817,-1.7779,-1.7787,-1.7788,-1.781,-1.7824,-1.7837,-1.7672,-1.7671,-1.767,0,0,-1.7905,-1.789,-1.7919,-1.7909,-1.7891,-1.7866,-1.7873,-1.7846,-1.7833,-1.7858,-1.781,-1.7822,-1.7834,-1.7826,-1.7823,-1.7915,-1.7878,-1.7917,-1.7979,-1.8004,-1.8016,-1.8026,-1.8059,-1.8071,-1.7924,-1.7924,-1.7924,0,-1.7965,-1.7982,-1.7939,-1.7958,-1.7957,-1.79,-1.793,-1.7922,-1.7908,-1.7909,-1.788,-1.7895,-1.7881,-1.7917,-1.794,-1.794,-1.7947,-1.7919,-1.8017,-1.8027,-1.8036,-1.8067,-1.8079,-1.7929,-1.7928,-1.7928,-1.7927,0,-1.8058,-1.807,-1.8097,-1.8083,-1.8085,-1.811,-1.8072,-1.8079,-1.805,-1.8028,-1.8055,-1.8037,-1.8037,-1.8043,-1.8016,-1.8077,-1.8061,-1.8026,-1.7974,-1.8056,-1.8084,-1.8095,-1.7936,-1.7934,-1.7933,-1.7932,0,0,-1.8199,-1.8163,-1.8173,-1.8167,-1.8144,-1.8154,-1.8177,-1.8176,-1.8183,-1.8176,-1.8195,-1.8207,-1.8175,-1.8172,-1.8143,-1.8166,-1.8239,-1.8127,-1.8126,-1.8149,-1.8306,-1.8332,-1.8347,-1.8216,-1.8218,-1.8219,-1.8307,0,-1.8286,-1.8321,-1.8284,-1.8328,-1.834,-1.8287,-1.8307,-1.8296,-1.8277,-1.8285,-1.8264,-1.8274,-1.823,-1.8228,-1.8248,-1.8226,-1.827,-1.822,-1.8233,-1.8234,-1.8238,-1.8361,-1.8389,-1.8472,-1.8318,-1.832,-1.8321,0,-1.839,-1.8387,-1.8432,-1.8408,-1.8411,-1.843,-1.8427,-1.8435,-1.8422,-1.8407,-1.8405,-1.837,-1.8392,-1.8343,-1.8374,-1.8341,-1.8344,-1.8335,-1.8337,-1.8337,-1.8282,-1.8364,-1.8498,-1.8511,-1.8338,-1.8337,-1.8335,0,-1.8489,-1.8496,-1.8524,-1.8521,-1.8493,-1.8507,-1.8497,-1.8481,-1.8484,-1.8482,-1.8483,-1.8484,-1.8485,-1.8487,-1.8454,-1.8421,-1.8489,-1.8437,-1.8478,-1.8479,-1.8494,-1.8493,-1.863,-1.8497,-1.8497,-1.8497,-1.8497,0,-1.8589,-1.8618,-1.8568,-1.8585,-1.8618,-1.8576,-1.8609,-1.8593,-1.8581,-1.8595,-1.855,-1.8564,-1.852,-1.8531,-1.8505,-1.8535,-1.8536,-1.8525,-1.8517,-1.8528,-1.853,-1.853,-1.8523,-1.85,-1.8499,-1.8499,-1.8498,0,-1.8704,-1.8671,-1.8698,-1.867,-1.8664,-1.8689,-1.8665,-1.8681,-1.8659,-1.8678,-1.868,-1.8646,-1.8656,-1.8624,-1.8629,-1.8612,-1.8655,-1.8639,-1.8659,-1.8654,-1.8696,-1.8693,-1.8838,-1.8855,-1.8712,-1.8713,-1.8714,0,-1.8769,-1.8791,-1.8765,-1.8771,-1.8762,-1.8772,-1.8774,-1.8735,-1.8739,-1.8727,-1.8745,-1.8751,-1.8753,-1.8772,-1.8749,-1.8753,-1.8736,-1.8787,-1.8737,-1.8747,-1.8737,-1.8736,-1.8738,-1.8797,-1.8799,-1.88,-1.8802,0,-1.8889,-1.8872,-1.8876,-1.8876,-1.8879,-1.8877,-1.8871,-1.8879,-1.8837,-1.8844,-1.8854,-1.8856,-1.8861,-1.8868,-1.8867,-1.8858,-1.8823,-1.8818,-1.8827,-1.8839,-1.8849,-1.8844,-1.8687,-1.8814,-1.8813,-1.8812,-1.8812,-1.8811,-1.8981,-1.8998,-1.8983,-1.8989,-1.8981,-1.8978,-1.8991,-1.8971,-1.8978,-1.8978,-1.8955,-1.8969,-1.8958,-1.8953,-1.8947,-1.8959,-1.8935,-1.8949,-1.8953,-1.8957,-1.8964,-1.8848,-1.8958,-1.8958,-1.8958,-1.8957,-1.8957,0,-1.9099,-1.9086,-1.9093,-1.9087,-1.9092,-1.9059,-1.9052,-1.9059,-1.9072,-1.9063,-1.9067,-1.9079,-1.9086,-1.9064,-1.9068,-1.9082,-1.9066,-1.9084,-1.9082,-1.9081,-1.8984,-1.8975,-1.9097,-1.9097,-1.9097,-1.9097,-1.9096,-1.9096,-1.916,-1.9187,-1.9169,-1.9192,-1.918,-1.9193,-1.9192,-1.9189,-1.9182,-1.9197,-1.9202,-1.9187,-1.9174,-1.9177,-1.9182,-1.9176,-1.918,-1.9203,-1.9191,-1.9101,-1.9088,-1.9075,-1.9066,-1.9204,-1.9205,-1.9287,-1.9288,-1.9288]},{"header":{"parameterUnit":"m.s-1","parameterCategory":1,"la1":30.2991,"la2":30.254,"lo1":-89.0895,"lo2":-89.0444,"dy":0.0017,"dx":0.0017,"nx":28,"ny":28,"refTime":"2023-09-25T21:00:00:Z","depth":0,"parameterNumber":3,"parameterNumberName":"V-component_of_WINDS"},"data":[0,0,0,0,0,0,0,0,0,0,0,0,0,0,0,0,0,0,0,0,0,0,0,0,0,0,0,0,0,0,0,0,0,0,0,0,0,0,0,0,0,0,0,0,0,0,0,0,0,0,0,0,0,0,0,0,0,0,1.793,1.7931,0,1.7991,1.7991,1.7992,1.7987,1.7986,1.7985,1.7984,1.8046,1.8049,1.8051,0,0,0,0,0,0,0,0,0,0,0,0,0,1.781,1.7812,1.793,1.7931,1.7932,1.7991,1.7991,1.7992,1.7987,1.7986,1.7985,1.7984,1.8046,1.8049,1.8052,0,0,0,0,0,0,0,0,0,0,0,0,0,1.7866,1.7813,1.793,1.7936,1.7938,1.799,1.7991,1.7992,1.7988,1.7986,1.7985,1.7984,1.8045,1.8048,1.8052,1.8103,0,0,1.8063,1.8065,0,0,0,0,0,0,0,0,1.7863,1.787,1.7935,1.7936,1.7937,1.798,1.7972,1.8029,1.7988,1.7969,1.7984,1.7983,1.8025,1.8031,1.8045,1.8106,1.8108,1.8064,1.8066,1.8068,1.8069,0,0,0,0,0,0,0,1.7859,1.7867,1.7954,1.7936,1.7937,1.7936,1.7942,1.7983,1.8004,1.797,1.797,1.7977,1.8026,1.8041,1.8046,1.8109,1.8064,1.8067,1.8069,1.8071,1.8213,1.8214,0,0,0,0,0,0,1.7853,1.7864,1.7952,1.7956,1.7896,1.7939,1.7946,1.7968,1.8004,1.8008,1.7978,1.7977,1.8036,1.8042,1.8049,1.8109,1.8068,1.8071,1.8073,1.8211,1.8213,1.8215,0,0,0,0,0,0,1.7851,1.7861,1.795,1.791,1.7921,1.7943,1.7967,1.797,1.7985,1.801,1.8013,1.799,1.8035,1.8043,1.8089,1.8111,1.8073,1.8076,1.821,1.8212,1.8214,1.8231,0,0,0,0,0,0,1.7847,1.786,1.788,1.7911,1.7923,1.7989,1.7968,1.7972,1.7992,1.799,1.8022,1.8026,1.8034,1.8083,1.8093,1.8116,1.8079,1.8208,1.8211,1.8213,1.8228,1.8233,1.8238,0,0,0,0,0,1.7843,1.7883,1.7881,1.7892,1.7948,1.799,1.7998,1.8007,1.7993,1.8013,1.8029,1.8025,1.8108,1.8088,1.8099,1.8123,1.8206,1.821,1.8213,1.8226,1.8232,1.8238,0,0,0,0,0,0,1.7854,1.7887,1.7885,1.7936,1.796,1.799,1.8014,1.8013,1.8042,1.804,1.805,1.8057,1.8103,1.8118,1.8095,1.8173,1.8155,1.8161,1.8162,1.8168,1.8172,1.8167,1.8082,0,0,0,0,0,1.7862,1.7894,1.7921,1.7963,1.7975,1.7993,1.8012,1.8017,1.8042,1.8053,1.8072,1.8097,1.8129,1.8149,1.818,1.8231,1.8237,1.8253,1.8258,1.8261,1.8266,1.8293,1.83,1.8226,1.8226,1.8226,0,0,1.788,1.7902,1.7921,1.7966,1.7985,1.8017,1.8002,1.8037,1.806,1.8058,1.8102,1.8117,1.8146,1.8194,1.8216,1.8208,1.8288,1.8266,1.8269,1.8271,1.8297,1.8304,1.831,1.8228,1.8228,1.8228,0,0,1.7927,1.7948,1.7984,1.8004,1.8034,1.8045,1.8054,1.8084,1.8093,1.8137,1.8136,1.8165,1.8219,1.8239,1.8257,1.8312,1.8309,1.8322,1.8346,1.8372,1.8378,1.8383,1.8401,1.8408,1.8326,1.8327,1.8327,0,1.7945,1.7994,1.8003,1.8038,1.8057,1.8057,1.8093,1.8113,1.8151,1.8164,1.8154,1.8222,1.8242,1.8294,1.8307,1.8322,1.8332,1.8318,1.8376,1.8381,1.8386,1.8404,1.8411,1.8328,1.8328,1.8327,1.8327,0,1.8013,1.8047,1.8073,1.8109,1.8132,1.8167,1.8182,1.8204,1.8207,1.8219,1.8263,1.8287,1.8322,1.8335,1.8339,1.8388,1.8381,1.8374,1.8356,1.8394,1.8411,1.8418,1.833,1.8329,1.8329,1.8328,0,0,1.8069,1.811,1.8119,1.8135,1.8168,1.8194,1.823,1.8263,1.8281,1.8308,1.8337,1.8383,1.8376,1.8396,1.8402,1.8425,1.8466,1.8415,1.8416,1.8422,1.852,1.8524,1.8532,1.8465,1.8466,1.8467,1.8517,0,1.8118,1.8181,1.819,1.8245,1.8276,1.8276,1.8307,1.833,1.8343,1.837,1.8385,1.8416,1.8406,1.8417,1.844,1.8456,1.8485,1.8453,1.8491,1.8492,1.8482,1.8541,1.8546,1.8592,1.8524,1.8525,1.8526,0,1.8184,1.8212,1.827,1.8298,1.8311,1.8339,1.837,1.8397,1.8423,1.8431,1.8453,1.8456,1.8492,1.8473,1.8523,1.8501,1.8517,1.8527,1.8529,1.8532,1.851,1.8544,1.8607,1.8613,1.8536,1.8535,1.8535,0,1.8217,1.8269,1.831,1.8324,1.8358,1.8377,1.8392,1.8418,1.8437,1.8465,1.8477,1.8509,1.8526,1.855,1.8562,1.8547,1.861,1.8593,1.8617,1.8616,1.8629,1.8628,1.8694,1.8642,1.8642,1.8642,1.8642,0,1.8271,1.8306,1.8325,1.835,1.8389,1.84,1.8438,1.8453,1.8475,1.8503,1.8506,1.8532,1.8546,1.8574,1.8583,1.8622,1.863,1.8637,1.8639,1.8636,1.8635,1.8646,1.8642,1.8644,1.8643,1.8643,1.8643,0,1.8313,1.8328,1.8372,1.8401,1.8409,1.8436,1.846,1.8484,1.8497,1.8532,1.8541,1.8561,1.8594,1.8608,1.8649,1.8655,1.8699,1.87,1.869,1.869,1.8713,1.871,1.8788,1.8798,1.874,1.8741,1.8741,0,1.8345,1.8372,1.8404,1.8422,1.8438,1.8468,1.8488,1.8499,1.852,1.8552,1.8572,1.8605,1.8632,1.8685,1.8702,1.8734,1.8734,1.8759,1.8738,1.8734,1.8732,1.873,1.8732,1.8762,1.8762,1.8763,1.8763,0,1.8401,1.8407,1.8435,1.8466,1.8489,1.8514,1.8538,1.8554,1.8569,1.8592,1.8626,1.8647,1.8688,1.872,1.8753,1.8768,1.8768,1.877,1.8777,1.8773,1.8766,1.8769,1.8699,1.8768,1.8767,1.8767,1.8767,1.8766,1.8438,1.8462,1.8487,1.8519,1.8538,1.8561,1.8584,1.86,1.8628,1.8663,1.8668,1.8704,1.8729,1.8772,1.8789,1.8817,1.8811,1.8821,1.8823,1.8825,1.8826,1.8763,1.8823,1.8823,1.8823,1.8823,1.8823,0,1.8493,1.8509,1.8538,1.8572,1.8596,1.8595,1.8621,1.8642,1.8673,1.8697,1.8723,1.8761,1.8793,1.8813,1.8845,1.8863,1.8864,1.8871,1.8869,1.8873,1.8831,1.8821,1.887,1.887,1.887,1.887,1.887,1.887,1.8524,1.8563,1.8572,1.8621,1.8637,1.8672,1.8687,1.8708,1.8726,1.8769,1.8795,1.8808,1.8831,1.8864,1.8893,1.8898,1.8909,1.8916,1.8921,1.8881,1.8876,1.8871,1.8862,1.8919,1.8919,1.896,1.8961,1.8961]}]]